When you browse on this site, cookies collect data to enhance your experience and personalize the content and advertising you see.
Visit our Privacy Policy to learn more. By continuing to use the site, you agree to this use of cookies and data.

Hourly Weather Tivrov

Today, 6 July, Monday

Time Temperature Precipitation Wind Pressure Humidity
00:00 +19°C° 0 mm 2 mps 736 mmHg 89%
01:00 +18°C° 0 mm 2 mps 735 mmHg 89%
02:00 +19°C° 0 mm 1 mps 735 mmHg 89%
03:00 +19°C° 0 mm 1 mps 735 mmHg 89%
04:00 +19°C° 0 mm 1 mps 735 mmHg 89%
05:00 +19°C° 0 mm 1 mps 735 mmHg 88%
06:00 +20°C° 0 mm 1 mps 735 mmHg 83%
07:00 +22°C° 0 mm 1 mps 735 mmHg 77%
08:00 +24°C° 0 mm 1 mps 735 mmHg 72%
09:00 +25°C° 0 mm 1 mps 735 mmHg 67%
10:00 +27°C° 0 mm 1 mps 735 mmHg 63%
11:00 +28°C° 0 mm 1 mps 734 mmHg 58%
12:00 +28°C° 0 mm 1 mps 734 mmHg 56%
13:00 +29°C° 0 mm 1 mps 734 mmHg 53%
14:00 +30°C° 0 mm 1 mps 734 mmHg 51%
15:00 +29°C° 0 mm 1 mps 733 mmHg 53%
16:00 +29°C° 0 mm 1 mps 733 mmHg 55%
17:00 +29°C° 0 mm 1 mps 732 mmHg 57%
18:00 +27°C° 0 mm 1 mps 732 mmHg 62%
19:00 +26°C° 0 mm 1 mps 732 mmHg 68%
20:00 +24°C° 0 mm 1 mps 731 mmHg 74%
21:00 +24°C° 0.2 mm 1 mps 731 mmHg 75%
22:00 +23°C° 0.2 mm 1 mps 731 mmHg 77%
23:00 +20°C° 0.2 mm 0 mps 731 mmHg 78%

Tomorrow, 7 July, Tuesday

Time Temperature Precipitation Wind Pressure Humidity
00:00 +20°C° 0.6 mm 0 mps 731 mmHg 81%
01:00 +21°C° 0.6 mm 1 mps 730 mmHg 84%
02:00 +21°C° 0.6 mm 1 mps 730 mmHg 87%
03:00 +21°C° 0.5 mm 1 mps 730 mmHg 88%
04:00 +20°C° 0.5 mm 2 mps 730 mmHg 89%
05:00 +19°C° 0.5 mm 2 mps 730 mmHg 90%
06:00 +20°C° 1.3 mm 3 mps 730 mmHg 89%
07:00 +21°C° 1.3 mm 4 mps 731 mmHg 89%
08:00 +21°C° 1.3 mm 5 mps 731 mmHg 88%
09:00 +21°C° 1 mm 6 mps 731 mmHg 88%
10:00 +20°C° 1 mm 6 mps 731 mmHg 88%
11:00 +20°C° 1 mm 7 mps 731 mmHg 89%
12:00 +18°C° 0.4 mm 7 mps 731 mmHg 87%
13:00 +18°C° 0.4 mm 7 mps 732 mmHg 85%
14:00 +17°C° 0.4 mm 8 mps 732 mmHg 84%
15:00 +16°C° 0 mm 8 mps 732 mmHg 82%
16:00 +16°C° 0 mm 8 mps 733 mmHg 80%
17:00 +15°C° 0 mm 8 mps 733 mmHg 78%
18:00 +15°C° 0 mm 8 mps 733 mmHg 79%
19:00 +14°C° 0 mm 7 mps 734 mmHg 79%
20:00 +12°C° 0 mm 7 mps 734 mmHg 80%
21:00 +12°C° 0.1 mm 7 mps 734 mmHg 82%
22:00 +13°C° 0.1 mm 6 mps 735 mmHg 84%
23:00 +11°C° 0.1 mm 6 mps 735 mmHg 86%

Day after tomorrow, 8 July, Wednesday

Time Temperature Precipitation Wind Pressure Humidity
00:00 +13°C° 0.3 mm 5 mps 735 mmHg 87%
01:00 +13°C° 0.3 mm 5 mps 735 mmHg 88%
02:00 +13°C° 0.3 mm 5 mps 735 mmHg 89%
03:00 +12°C° 0 mm 5 mps 736 mmHg 90%
04:00 +12°C° 0 mm 5 mps 736 mmHg 91%
05:00 +10°C° 0 mm 5 mps 736 mmHg 92%
06:00 +12°C° 0 mm 5 mps 736 mmHg 87%
07:00 +13°C° 0 mm 5 mps 737 mmHg 81%
08:00 +15°C° 0 mm 6 mps 737 mmHg 76%
09:00 +16°C° 0 mm 5 mps 737 mmHg 72%
10:00 +17°C° 0 mm 5 mps 737 mmHg 67%
11:00 +19°C° 0 mm 5 mps 737 mmHg 63%
12:00 +19°C° 0 mm 5 mps 737 mmHg 62%
13:00 +20°C° 0 mm 5 mps 737 mmHg 61%
14:00 +20°C° 0 mm 5 mps 737 mmHg 59%
15:00 +20°C° 0 mm 4 mps 737 mmHg 61%
16:00 +20°C° 0 mm 4 mps 737 mmHg 62%
17:00 +19°C° 0 mm 4 mps 737 mmHg 64%
18:00 +18°C° 0 mm 4 mps 737 mmHg 70%
19:00 +17°C° 0 mm 3 mps 737 mmHg 76%
20:00 +14°C° 0 mm 3 mps 738 mmHg 82%
21:00 +14°C° 0 mm 2 mps 738 mmHg 83%
22:00 +14°C° 0 mm 2 mps 738 mmHg 85%
23:00 +13°C° 0 mm 2 mps 738 mmHg 87%

9 July, Thursday

Time Temperature Precipitation Wind Pressure Humidity
00:00 +13°C° 0 mm 2 mps 738 mmHg 88%
01:00 +12°C° 0 mm 2 mps 738 mmHg 89%
02:00 +12°C° 0 mm 2 mps 738 mmHg 90%
03:00 +12°C° 0 mm 2 mps 738 mmHg 89%
04:00 +13°C° 0 mm 2 mps 738 mmHg 88%
05:00 +13°C° 0 mm 2 mps 738 mmHg 87%
06:00 +13°C° 0 mm 3 mps 739 mmHg 86%
07:00 +14°C° 0 mm 3 mps 739 mmHg 85%
08:00 +16°C° 0 mm 3 mps 739 mmHg 84%
09:00 +16°C° 0 mm 3 mps 739 mmHg 83%
10:00 +17°C° 0 mm 3 mps 740 mmHg 82%
11:00 +17°C° 0 mm 3 mps 740 mmHg 81%
12:00 +18°C° 0.1 mm 3 mps 740 mmHg 76%
13:00 +20°C° 0.1 mm 4 mps 740 mmHg 71%
14:00 +21°C° 0.1 mm 4 mps 740 mmHg 65%
15:00 +21°C° 0.1 mm 4 mps 740 mmHg 66%
16:00 +21°C° 0.1 mm 4 mps 740 mmHg 66%
17:00 +21°C° 0.1 mm 4 mps 740 mmHg 66%
18:00 +20°C° 0.1 mm 3 mps 740 mmHg 71%
19:00 +18°C° 0.1 mm 2 mps 740 mmHg 77%
20:00 +16°C° 0.1 mm 2 mps 740 mmHg 83%
21:00 +16°C° 0 mm 1 mps 740 mmHg 84%
22:00 +15°C° 0 mm 1 mps 740 mmHg 86%
23:00 +14°C° 0 mm 1 mps 741 mmHg 87%

10 July, Friday

Time Temperature Precipitation Wind Pressure Humidity
00:00 +14°C° 0 mm 1 mps 741 mmHg 88%
01:00 +13°C° 0 mm 1 mps 741 mmHg 88%
02:00 +13°C° 0 mm 1 mps 741 mmHg 89%
03:00 +13°C° 0 mm 1 mps 741 mmHg 89%
04:00 +13°C° 0 mm 1 mps 741 mmHg 89%
05:00 +12°C° 0 mm 0 mps 741 mmHg 90%
06:00 +15°C° 0 mm 1 mps 741 mmHg 84%
07:00 +18°C° 0 mm 1 mps 741 mmHg 79%
08:00 +20°C° 0 mm 1 mps 742 mmHg 73%
09:00 +20°C° 0 mm 2 mps 742 mmHg 69%
10:00 +21°C° 0 mm 2 mps 742 mmHg 64%
11:00 +23°C° 0 mm 2 mps 742 mmHg 59%
12:00 +24°C° 0 mm 2 mps 741 mmHg 56%
13:00 +24°C° 0 mm 2 mps 741 mmHg 54%
14:00 +25°C° 0 mm 2 mps 741 mmHg 52%
15:00 +25°C° 0 mm 2 mps 741 mmHg 52%
16:00 +25°C° 0 mm 2 mps 741 mmHg 53%
17:00 +25°C° 0 mm 2 mps 740 mmHg 54%
18:00 +24°C° 0 mm 2 mps 740 mmHg 61%
19:00 +21°C° 0 mm 3 mps 740 mmHg 67%
20:00 +19°C° 0 mm 3 mps 740 mmHg 74%
21:00 +18°C° 0 mm 3 mps 740 mmHg 75%
22:00 +18°C° 0 mm 3 mps 740 mmHg 75%
23:00 +17°C° 0 mm 3 mps 740 mmHg 76%

11 July, Saturday

Time Temperature Precipitation Wind Pressure Humidity
00:00 +17°C° 0 mm 3 mps 740 mmHg 76%
01:00 +16°C° 0 mm 3 mps 740 mmHg 77%
02:00 +16°C° 0 mm 3 mps 739 mmHg 78%
03:00 +16°C° 0 mm 3 mps 739 mmHg 79%
04:00 +16°C° 0 mm 3 mps 739 mmHg 80%
05:00 +16°C° 0 mm 3 mps 739 mmHg 81%
06:00 +18°C° 0 mm 4 mps 739 mmHg 78%
07:00 +20°C° 0 mm 5 mps 739 mmHg 75%
08:00 +22°C° 0 mm 5 mps 740 mmHg 72%
09:00 +23°C° 0 mm 6 mps 740 mmHg 68%
10:00 +24°C° 0 mm 6 mps 740 mmHg 63%
11:00 +26°C° 0 mm 6 mps 740 mmHg 59%
12:00 +27°C° 0 mm 6 mps 739 mmHg 58%
13:00 +27°C° 0 mm 6 mps 739 mmHg 57%
14:00 +27°C° 0 mm 5 mps 739 mmHg 56%
15:00 +27°C° 0 mm 5 mps 738 mmHg 58%
16:00 +27°C° 0 mm 5 mps 738 mmHg 59%
17:00 +27°C° 0 mm 4 mps 738 mmHg 61%
18:00 +25°C° 0 mm 4 mps 738 mmHg 66%
19:00 +23°C° 0 mm 4 mps 737 mmHg 71%
20:00 +21°C° 0 mm 3 mps 737 mmHg 76%
21:00 +20°C° 0 mm 3 mps 737 mmHg 75%
22:00 +19°C° 0 mm 3 mps 737 mmHg 74%
23:00 +18°C° 0 mm 3 mps 738 mmHg 73%
Show more